EW5171 Weather Reports


time (UTC)temp
F
wind
direction
speed
knots
gust
knots
rain 1hr
in
rain 24hr
in
rain mn
in
humidity
%
barometer
mb
20260504023103 50 312 0.0 0.9 0.04 0.24 0.13 96 1006.7
20260504022558 50 312 0.0 0.0 0.03 0.24 0.13 96 1006.7
20260504022055 50 312 0.0 0.9 0.05 0.24 0.13 96 1006.7
20260504021557 50 312 0.0 0.9 0.06 0.24 0.13 96 1006.7
20260504021056 50 312 0.0 0.0 0.06 0.24 0.13 96 1006.6
20260504020556 50 312 0.0 1.7 0.07 0.24 0.13 96 1006.6
20260504020059 50 312 0.0 1.7 0.06 0.23 0.12 96 1006.7
20260504015554 50 312 0.0 0.9 0.07 0.23 0.12 96 1006.7
20260504015057 50 312 0.0 1.7 0.06 0.22 0.11 96 1006.7
20260504014554 51 312 0.0 1.7 0.06 0.22 0.11 96 1006.7
20260504014053 51 131 0.0 1.7 0.06 0.21 0.10 96 1006.7
20260504013552 51 5 0.0 1.7 0.06 0.21 0.10 96 1006.6
20260504013106 51 207 0.0 2.6 0.05 0.20 0.09 96 1006.7
20260504012552 51 205 0.0 2.6 0.05 0.20 0.09 96 1006.7
20260504012052 51 115 0.0 2.6 0.03 0.19 0.08 97 1006.6
20260504011551 51 181 0.0 0.9 0.03 0.18 0.07 97 1006.7
20260504011049 51 181 0.0 0.0 0.02 0.17 0.06 96 1006.7
20260504010549 51 181 0.0 0.0 0.02 0.17 0.06 96 1006.8
20260504010058 51 181 0.0 0.9 0.02 0.17 0.06 96 1006.9
20260504005552 51 181 0.0 0.9 0.01 0.16 0.05 96 1006.8
20260504005049 51 181 0.0 0.0 0.01 0.16 0.05 96 1006.7
20260504004603 51 181 0.0 0.0 0.02 0.16 0.05 96 1006.7
20260504004048 51 181 0.0 0.0 0.02 0.16 0.05 96 1006.8
20260504003547 51 181 0.0 0.0 0.02 0.16 0.05 96 1006.8
20260504003048 51 181 0.0 0.0 0.02 0.16 0.05 96 1006.8
20260504002547 51 181 0.0 0.0 0.02 0.16 0.05 96 1006.8
20260504002047 51 181 0.0 0.9 0.02 0.16 0.05 96 1006.9
20260504001546 51 181 0.0 0.9 0.02 0.15 0.04 96 1006.9
20260504001046 51 181 0.0 0.9 0.02 0.15 0.04 96 1007.1
20260504000545 51 181 0.0 1.7 0.02 0.15 0.04 96 1007.1
20260504000045 51 181 0.0 1.7 0.02 0.15 0.04 96 1007.1
20260503235543 51 181 0.0 0.9 0.02 0.15 0.04 96 1007.1
20260503235043 51 181 0.0 0.9 0.02 0.15 0.04 96 1007.1
20260503234546 51 181 0.0 0.9 0.02 0.14 0.03 96 1007.1
20260503234043 51 181 0.0 0.9 0.02 0.14 0.03 96 1007.2
20260503233545 51 181 0.0 0.0 0.02 0.14 0.03 96 1007.2
20260503233041 51 181 0.0 0.9 0.02 0.14 0.03 96 1007.3
20260503232545 51 181 0.0 0.9 0.02 0.14 0.03 96 1007.3
20260503232041 51 181 0.0 0.9 0.01 0.13 0.02 96 1007.3
20260503231540 51 181 0.0 0.9 0.01 0.13 0.02 96 1007.4
20260503231039 51 181 0.0 1.7 0.02 0.13 0.02 96 1007.4
20260503230539 51 181 0.0 1.7 0.01 0.13 0.02 96 1007.5
20260503230040 51 181 0.0 0.9 0.01 0.13 0.02 96 1007.5
20260503225538 51 181 0.0 1.7 0.02 0.13 0.02 96 1007.5
20260503225038 51 181 0.0 1.7 0.02 0.13 0.02 96 1007.5
20260503224538 51 181 0.0 1.7 0.02 0.13 0.02 96 1007.6
20260503224038 51 181 0.0 1.7 0.02 0.13 0.02 95 1007.7
20260503223537 51 181 0.9 1.7 0.03 0.13 0.02 95 1007.6
20260503223037 51 181 0.0 1.7 0.04 0.13 0.02 95 1007.6
20260503222536 51 181 0.0 1.7 0.05 0.13 0.02 95 1007.6
20260503222139 51 181 0.0 0.9 0.05 0.13 0.02 95 1007.6
20260503221541 51 181 0.0 0.9 0.06 0.13 0.02 95 1007.7
20260503221037 51 181 0.0 0.9 0.05 0.12 0.01 95 1007.7
20260503220535 52 181 0.0 0.9 0.06 0.12 0.01 95 1007.7
20260503220034 52 181 0.0 0.0 0.06 0.12 0.01 95 1007.8
20260503215533 52 181 0.0 0.0 0.06 0.11 0.11 95 1007.9
20260503215032 52 181 0.0 0.0 0.08 0.11 0.11 95 1007.9
20260503214534 52 181 0.0 0.9 0.09 0.10 0.10 95 1007.9
20260503214035 52 181 0.0 0.9 0.08 0.09 0.09 95 1008.1
20260503213532 52 181 0.0 0.0 0.09 0.09 0.09 95 1008.1
20260503213044 52 181 0.0 0.0 0.08 0.09 0.09 95 1008.2
20260503212532 52 181 0.0 0.0 0.07 0.08 0.08 95 1008.3
20260503212032 52 181 0.0 0.0 0.07 0.08 0.08 95 1008.4
20260503211531 52 181 0.0 0.9 0.06 0.07 0.07 95 1008.5
20260503211031 52 181 0.0 0.9 0.06 0.07 0.07 95 1008.6
20260503210533 52 181 0.0 2.6 0.06 0.06 0.06 95 1008.8
20260503210031 52 181 0.0 4.3 0.06 0.06 0.06 95 1008.8
20260503205531 52 195 1.7 6.1 0.04 0.05 0.05 94 1009.0
20260503205031 52 144 3.5 6.1 0.02 0.03 0.03 94 1009.2
20260503204545 52 169 1.7 3.5 0.01 0.02 0.02 94 1009.2
20260503204029 52 69 0.9 1.7 0.00 0.01 0.01 94 1008.7
20260503203529 52 69 0.0 0.0 0.00 0.01 0.01 94 1008.3
20260503203031 52 69 0.0 0.0 0.00 0.01 0.01 94 1008.1
20260503202529 52 69 0.0 0.0 0.00 0.01 0.01 94 1008.0
20260503202029 52 69 0.0 0.0 0.00 0.01 0.01 93 1008.0
20260503201529 52 69 0.0 0.0 0.00 0.01 0.01 93 1008.0
20260503201028 52 69 0.0 0.0 0.00 0.01 0.01 93 1008.0
20260503200528 52 69 0.0 0.0 0.00 0.01 0.01 93 1008.0
20260503200028 53 69 0.0 0.9 0.01 0.01 0.01 93 1008.0
20260503195527 53 69 0.0 0.9 0.01 0.01 0.01 93 1007.9
20260503195026 53 69 0.0 0.0 0.01 0.01 0.01 93 1008.1
20260503194526 53 69 0.0 0.0 0.01 0.01 0.01 93 1008.2
20260503194028 53 69 0.0 0.0 0.01 0.01 0.01 92 1008.2
20260503193526 53 69 0.0 0.0 0.01 0.01 0.01 92 1008.1
20260503193033 53 69 0.0 2.6 0.01 0.01 0.01 92 1008.3
20260503192525 53 69 0.0 2.6 0.01 0.01 0.01 91 1008.3
20260503192024 53 198 0.0 0.0 0.01 0.01 0.01 91 1008.3
20260503191523 53 198 0.0 0.0 0.01 0.01 0.01 90 1008.4
20260503191023 54 198 0.0 0.0 0.01 0.01 0.01 89 1008.5
20260503190522 54 198 0.0 0.0 0.01 0.01 0.01 89 1008.6
20260503190021 54 198 0.0 0.0 0.00 0.00 0.00 89 1008.7
20260503185520 55 198 0.0 0.0 0.00 0.00 0.00 89 1008.7
20260503185021 55 198 0.0 0.0 0.00 0.00 0.00 88 1008.7
20260503184533 55 198 0.0 0.0 0.00 0.00 0.00 87 1008.8
20260503184020 55 198 0.0 0.0 0.00 0.00 0.00 87 1008.8
20260503183520 55 198 0.0 1.7 0.00 0.00 0.00 86 1008.9
20260503183021 55 198 0.0 2.6 0.00 0.00 0.00 86 1008.9
20260503182518 55 198 0.0 2.6 0.00 0.00 0.00 85 1009.0
20260503182018 56 198 0.9 2.6 0.00 0.00 0.00 85 1009.0
20260503181518 56 198 0.9 1.7 0.00 0.00 0.00 86 1009.0
20260503181019 56 198 0.0 1.7 0.00 0.00 0.00 87 1009.0
20260503180518 55 198 0.0 2.6 0.00 0.00 0.00 87 1009.0
20260503180024 55 198 0.9 2.6 0.00 0.00 0.00 87 1009.0
20260503175517 55 198 0.0 2.6 0.00 0.00 0.00 88 1009.0
20260503175017 54 198 0.9 2.6 0.00 0.00 0.00 88 1009.0
20260503174518 54 198 0.0 2.6 0.00 0.00 0.00 88 1008.9
20260503174017 54 198 0.9 2.6 0.00 0.00 0.00 89 1009.0
20260503173517 54 200 0.0 3.5 0.00 0.00 0.00 88 1009.0
20260503173017 54 192 0.9 3.5 0.00 0.00 0.00 88 1009.0
20260503172515 54 181 0.9 4.3 0.00 0.00 0.00 88 1009.0
20260503172015 54 208 1.7 4.3 0.00 0.00 0.00 87 1009.1
20260503171514 55 187 0.9 3.5 0.00 0.00 0.00 87 1009.1
20260503171017 55 180 0.9 4.3 0.00 0.00 0.00 87 1009.1
20260503170514 55 159 0.9 5.2 0.00 0.00 0.00 87 1009.1
20260503151006 60 155 5.2 9.6 0.00 0.00 0.00 76 1009.6
20260503150503 60 155 3.5 8.7 0.00 0.00 0.00 77 1009.6
20260503131051 57 139 0.9 6.1 0.00 0.00 0.00 82 1010.6
20260503130549 57 194 2.6 6.1 0.00 0.00 0.00 83 1010.6
20260503110543 60 184 2.6 7.0 0.00 0.00 0.00 74 1011.1
20260503081529 55 242 0.9 7.0 0.00 0.00 0.00 83 1011.4
20260503081029 55 213 1.7 4.3 0.00 0.00 0.00 83 1011.4
20260503080529 55 191 0.9 5.2 0.00 0.00 0.00 85 1011.4
20260503072526 54 255 2.6 6.1 0.00 0.00 0.00 86 1011.3
20260503072026 54 219 2.6 8.7 0.00 0.00 0.00 87 1011.4
20260503071525 54 331 1.7 8.7 0.00 0.00 0.00 87 1011.4
20260503071024 54 322 1.7 6.1 0.00 0.00 0.00 88 1011.2
20260503070525 53 215 0.9 7.8 0.00 0.00 0.00 88 1011.2
20260503055021 53 306 0.9 6.1 0.00 0.00 0.00 91 1010.9
20260503054526 53 209 2.6 6.1 0.00 0.00 0.00 92 1010.9
20260503054023 53 271 0.9 6.1 0.00 0.00 0.00 92 1010.9
20260503053520 53 293 1.7 5.2 0.00 0.00 0.00 93 1010.7
20260503053022 53 234 0.9 4.3 0.00 0.00 0.00 93 1010.7
20260503052521 52 205 0.0 4.3 0.00 0.00 0.00 94 1010.7
20260503052016 52 163 0.0 4.3 0.00 0.00 0.00 94 1010.6
20260503051614 52 217 0.9 3.5 0.00 0.00 0.00 94 1010.8
20260503051014 52 223 0.9 3.5 0.00 0.00 0.00 94 1010.8
20260503050514 51 231 0.9 3.5 0.00 0.00 0.00 95 1010.9
20260503050013 51 310 0.9 3.5 0.00 0.00 0.00 95 1010.9
20260503045511 51 255 0.9 4.3 0.00 0.00 0.00 95 1011.0
20260503045011 51 292 0.9 4.3 0.00 0.00 0.00 95 1011.1
20260503044511 50 247 0.9 3.5 0.00 0.00 0.00 95 1011.0
20260503044010 50 239 0.9 3.5 0.00 0.00 0.00 95 1011.0
20260503043510 50 234 0.9 4.3 0.00 0.00 0.00 95 1011.1
20260503043010 49 243 0.0 2.6 0.00 0.00 0.00 94 1011.1
20260503042509 49 219 0.9 2.6 0.00 0.00 0.00 94 1011.2
20260503042009 49 219 0.0 2.6 0.00 0.00 0.00 94 1011.1
20260503041511 48 296 0.0 0.9 0.00 0.00 0.00 93 1011.1
20260503041010 48 296 0.0 1.7 0.00 0.00 0.00 93 1011.1
20260503040507 48 296 0.0 1.7 0.00 0.00 0.00 93 1011.0
20260503040005 48 296 0.0 0.9 0.00 0.00 0.00 93 1011.2
20260503035508 48 296 0.0 0.9 0.00 0.00 0.00 93 1011.1
20260503035003 48 296 0.0 0.9 0.00 0.00 0.00 92 1011.2
20260503034507 49 296 0.0 0.9 0.00 0.00 0.00 92 1011.2
20260503034002 49 296 0.0 0.9 0.00 0.00 0.00 92 1011.1
20260503033600 49 296 0.0 0.9 0.00 0.00 0.00 92 1011.0
20260503033102 49 296 0.0 0.9 0.00 0.00 0.00 93 1010.9
20260503032559 50 296 0.0 0.9 0.00 0.00 0.00 93 1010.8
20260503032058 50 296 0.0 0.9 0.00 0.00 0.00 92 1010.8
20260503031557 50 296 0.0 1.7 0.00 0.00 0.00 93 1010.9
20260503031058 50 296 0.0 3.5 0.00 0.00 0.00 93 1010.9
20260503030558 50 285 0.0 3.5 0.00 0.00 0.00 93 1011.0
20260503030058 50 294 0.0 3.5 0.00 0.00 0.00 93 1010.9
20260503025555 50 294 0.0 3.5 0.00 0.00 0.00 93 1011.0
20260503025055 50 221 0.9 3.5 0.00 0.00 0.00 93 1011.0
20260503024555 50 272 0.0 5.2 0.00 0.00 0.00 93 1011.1
20260503024056 50 230 0.9 5.2 0.00 0.00 0.00 93 1011.1
20260503023555 50 244 0.0 3.5 0.00 0.00 0.00 93 1011.2